STARLINK-5672, 55468

Orbit data source: Space-Track

STARLINK-5672, 55468 is a payload satellite owned by SpaceX/Seattle (US) in LEO that was launched on Thu, 02 Feb 2023 UTC via an FALCON 9 launch vehicle from the Air Force Eastern Test Range (AFETR). Payload-class satellites include a variety of spacecraft equipped with specific instruments for various scientific and technological missions. These include communications satellites like Starlink; space stations such as the ISS; scientific satellites like the Hubble; Earth observation satellites from companies like Planet Labs, Umbra, and HawkEye 360; GPS; miniature CubeSats for education and research; and military/defense satellites.

Loading next visibility...
Identifier
55468, 2023-015V
Orbit
LEO
Country
Flag of USUS
Related business
Manufacturer
SpaceX/Seattle
Mission
Operational Commercial Communications
Bus & Motor
STARLINK, Unknown motor
Mass
305 kg wet, ~290 kg dry
Launch date (UTC)
2023-02-02 (3 years ago)
Launch vehicle
FALCON 9
Launch site
Air Force Eastern Test Range (AFETR)
Object type
Payload
Rocket body
Debris
Shape & HBR
Box + 1 Pan, 10.1 m
Radar Cross Section
13.562 m², Large (>1 m²)

Expand to show TLE details & history
Last TLE update: 13 hours ago

TLE from 13 hours ago
0 STARLINK-5672
1 55468U 23015V   26035.56836735  .00006031  00000-0  46120-3 0  9994
2 55468  43.0030 145.7931 0001271 278.0454  82.0244 15.02531112165778
Epoch: 2026-02-04T13:38Z
TLE epoch observation values (Epoch: 2026-02-04T13:38:26.939Z)
Latitude
-0.00001°
Longitude
166.44777°
Altitude
558.751 km
Speed
7.584 km/s
True Right ascension
09h 43m 10s
True Declination
0° 00' 00"
Sunlit
Object was in full shadow at epoch
Visualization orbit readout
Latitude
Unknown
Longitude
Unknown
Altitude
Unknown
Speed
Unknown
Apparent Right ascension
Unknown
Apparent Declination
Unknown
Sunlit
N/A
Visualization observer readout
Local Sidereal Time
04:39:18
Azimuth
Unknown
Elevation
Unknown
Doppler factor
Unknown
Orbital elements
Apogee altitude
561.9 km
Perigee altitude
560.136 km
Semi-major axis
6,939.155 km
Eccentricity
0.00013
Inclination
43.003°
RAAN
145.7931°
Arg. of periapsis
278.0454°
True anomaly
82.03882°
Mean anomaly
82.0244°
Eccentric anomaly
82.03161°
Mean motion
3.75477 °/min
Orbital period
95.88 mins
BSTAR
0.0004612
Loading maneuver chart data...
Computing Atmospheric mass density...
Loading historical data...
Loading historical data...
Loading historical data...
Loading historical data...
Loading historical data...
Loading historical data...
Loading historical data...

Documentation

Showing up to 5 results
|